sat.trackr.live / text

‹ back to catalog

STARLINK-4338

NORAD 53055 · 2022-077N

PAYLOAD ACTIVE UNKNOWN

§ Identity

Operator
Country
US
Launch date
2022-07-11
Launch site
AFWTR
Launch vehicle
Mass (kg)
RCS (m²)

Purposes: comms

External: N2YO · Heavens-Above · Gunter

§ Orbital elements

Epoch: 2026-09-18T00:26:37.611168Z

Period
93.91 min
Inclination
97.2859°
Eccentricity
0.0001962
Mean motion
15.33432097 rev/d
Perigee alt
464.2 km
Apogee alt
466.9 km
Semi-major
6,843.7 km
B*
-7.7241e-6
RAAN
76.6941°
Arg perigee
88.6233°
Mean anomaly
271.5234°
Rev number
22,996

§ Raw data

STARLINK-43381 53055U 22077N   26261.01849087 -.00000324  00000+0 -77241-5 0  99962 53055  97.2859  76.6941 0001962  88.6233 271.5234 15.33432097229960

JSON: /api/v1/satellites/53055 · /tle

For live sub-satellite position, see the globe view (requires WebGL).

§ Visibility from observer

Set your observer location to see the next 7 days of passes ≥ 10°. The values pass through the URL so the page stays shareable.

No JS? Fill the form by hand. The geolocation button needs JavaScript.